Terminal Aerodrome Forecast
Issued by NWS

Home | Current Version | Previous Version | Graphics & Text | Print | Product List | Glossary On
Versions: 1 2 3 4 5 6 7 8 9 10 11 12 13 14 15 16 17 18 19 20 21 22 23 24 25 26 27 28 29 30 31 32 33 34 35 36 37 38 39 40
000
FTUS45 KGGW 240100 AAB
TAFOLF
TAF AMD
KOLF 240153Z 2402/2424 VRB05KT 3SM BR FEW010
      TEMPO 2402/2406 00000KT 1SM BR BKN001
     FM240600 VRB04KT P6SM BKN130=

USA.gov is the U.S. government's official web portal to all federal, state and local government web resources and services.